Location: Larkspur
(54.4391°N, 113.7691°W)
Time: 12:47:36
(UTC+00:00)

MOZHAYETS 4 - Pass Details

Date: 04 December 2023
Orbit: 654 x 672 km, 98.3° (Epoch: 28 February)

Event Time Altitude Azimuth Distance (km) Brightness Sun altitude
Rises 01:09:35 0° 8° (N) 3,034 10.9 -15.7°
Reaches altitude 10° 01:12:10 10° 355° (N) 2,118 10.2 -16.1°
Maximum altitude 01:15:49 24° 303° (WNW) 1,406 9.8 -16.6°
Drops below altitude 10° 01:19:28 10° 250° (WSW) 2,111 11.6 -17.1°
Sets 01:22:02 0° 237° (WSW) 3,022 12.5 -17.5°
